{"data":{"norad_id":62449,"epoch":"2026-05-24T22:30:05.548608Z","epoch_age_seconds":73596,"freshness":"FRESH","line1":"1 62449U 24251T   26144.93756422  .00015858  00000+0  54621-3 0  9991","line2":"2 62449  53.1621 341.0435 0001054  77.1351 282.9767 15.30210923 79462","mean_motion":15.30210923,"eccentricity":0.0001054,"inclination_deg":53.1621,"raan_deg":341.0435,"arg_perigee_deg":77.1351,"mean_anomaly_deg":282.9767,"bstar":0.00054621,"rev_number":7946,"period_min":94.104673960689,"perigee_km":474.4601156336,"apogee_km":475.90479537482,"semimajor_km":6853.3194555042,"source":"CELESTRAK","updated_at":"2026-05-25T13:38:19.686633Z"}}